Location: Sungai Kamana Besar
(2.6333°N, 113.4333°E)
Time: 06:03:22
(UTC+00:00)

FALCON 9 DEB - Pass Details

Date: 29 May 2022
Orbit: 396 x 404 km, 53.0° (Epoch: 26 June)

Event Time Altitude Azimuth Distance (km) Brightness Sun altitude
Exits shadow 21:45:37 10° 242° (WSW) 1,464 5.1 -7.9°
Maximum altitude 21:48:32 29° 304° (NW) 769 4.1 -7.2°
Drops below altitude 10° 21:51:23 11° 7° (N) 1,434 6.2 -6.5°
Sets 21:53:42 0° 19° (NNE) 2,325 7.5 -6.0°
